Regional Weather Roundup
Issued by NWS

Home | Current Version | Previous Version | Text Only | Print | Product List | Glossary On
Versions: 1 2 3 4 5 6 7 8 9 10 11 12 13 14 15 16 17 18 19 20 21 22 23 24 25 26 27 28 29 30 31 32 33 34 35 36 37 38 39 40 41 42 43 44 45 46 47 48 49 50
000
ASUS45 KBOI 190710
RWRID
WEATHER ROUNDUP FOR IDAHO
NATIONAL WEATHER SERVICE BOISE ID
100 AM MDT FRI SEP 19 2014

NOTE: "FAIR" INDICATES FEW OR NO CLOUDS BELOW 12000 FEET
WITH NO SIGNIFICANT WEATHER AND/OR OBSTRUCTIONS TO VISIBILITY

IDZ012-014-190800-
SOUTHWEST IDAHO


CITY           SKY/WX    TMP DP  RH WIND       PRES   REMARKS
BOISE          CLEAR     66  44  45 W7        29.90R
CALDWELL       CLEAR     64  43  45 NW8       29.92R
MOUNTAIN HOME  CLEAR     60  40  47 NW8       29.89R
$$

IDZ016-017-190800-
SOUTHCENTRAL IDAHO


CITY           SKY/WX    TMP DP  RH WIND       PRES   REMARKS
BURLEY         CLEAR     57  46  66 W3        29.92R HAZE
JEROME         CLEAR     60  44  55 SE6       29.94R
TWIN FALLS     CLEAR     64  41  42 S14       29.94R HAZE
$$

IDZ019>023-190800-
SOUTHEAST IDAHO


CITY           SKY/WX    TMP DP  RH WIND       PRES   REMARKS
IDAHO FALLS    PTCLDY    59  51  75 SW6       29.96R
POCATELLO      CLEAR     57  53  86 NE5       29.95R
REXBURG        MOCLDY    59  49  69 CALM      29.97R
$$

IDZ006-010-011-018-031-032-190800-
CENTRAL IDAHO MOUNTAINS


CITY           SKY/WX    TMP DP  RH WIND       PRES   REMARKS
MCCALL         CLEAR     53  39  59 CALM      29.99R
HAILEY         CLEAR     54  39  58 NW13G18   30.01R
STANLEY          N/A     42  33  70 CALM      30.08R
SALMON         CLEAR     48  43  81 CALM      29.91R
CHALLIS        CLEAR     54  38  54 CALM      29.98R
$$

IDZ002-004-006-007-026-190800-
NORTHERN IDAHO


CITY           SKY/WX    TMP DP  RH WIND       PRES   REMARKS
LEWISTON       MOCLDY    69  49  48 SW8       29.88R
LOWELL           N/A     60  54  80 CALM      29.89R
COEUR D`ALENE  MOCLDY    64  46  52 SW8       29.86R
MULLAN PASS    CLOUDY    49  45  86 VRB7G18   29.97R
$$


USA.gov is the U.S. government's official web portal to all federal, state and local government web resources and services.